Tracking 35274 objects as of 10-Sep-2026
HD Live streaming from Space Station
objects crossing your sky now

ASIASAT 2 DEB


ASIASAT 2 DEB is no longer on orbit


NORAD ID: 28063
Int'l Code: 1995-064E
Launch date: November 28, 1995
Source: People's Republic of China (PRC)
Launch site: Xichang Space Center, China (XSC)
Decay date: 2003-11-21

Note: This is SATELLITE DEBRIS
Your satellite tracking list
Your tracking list is empty




NASA's NSSDC Master Catalog

Two Line Element Set (TLE):
1 28063U 95064E   03291.04422153 +.04050824 -23093-5 +12537-1 0  9994
2 28063 025.4288 179.0579 2696261 211.1297 129.7191 10.21311660004299
Source of the keplerian elements: AFSPC